Location: ??????
(41.3164°N, 22.6615°E)
Time: 07:12:15
(UTC+00:00)

CUBESAT XI-V - Pass Details

Date: 07 July 2022
Orbit: 668 x 690 km, 98.1° (Epoch: 15 August)

Event Time Altitude Azimuth Distance (km) Brightness Sun altitude
Exits shadow 23:59:55 42° 133° (SE) 950 ? -23.1°
Maximum altitude 00:01:14 62° 74° (ENE) 759 ? -23.0°
Drops below altitude 10° 00:05:46 10° 354° (N) 2,104 ? -22.6°
Sets 00:08:01 0° 351° (N) 3,021 ? -22.5°
